Weather History for Jackson, KY

Change the Weather History Date:

Wednesday, March 12, 2014

  Actual Average Record
Temperature  
Mean Temperature 45 °F 46 °F  
Max Temperature 62 °F 56 °F 85 °F (1990)
Min Temperature 28 °F 36 °F 11 °F (1998)
Degree Days  
Heating Degree Days 20 19  
Month to date heating degree days 269 250  
Since 1 July heating degree days 3870 3550  
Cooling Degree Days 0 0  
Month to date cooling degree days 0 0  
Year to date cooling degree days 0 0  
Moisture  
Dew Point 37 °F    
Average Humidity 68    
Maximum Humidity 93    
Minimum Humidity 42    
Precipitation  
Precipitation 0.30 in 0.14 in 0.70 in (2010)
Month to date precipitation 2.91 1.59  
Year to date precipitation 10.53 8.95  
Snow  
Snow 0.90 in 0.10 in - ()
Month to date snowfall 7.3 1.4  
Since 1 July snowfall 34.3 21.0  
Snow Depth 0.00 in    
Sea Level Pressure  
Sea Level Pressure 29.62 in    
Wind  
Wind Speed 9 mph (WNW)    
Max Wind Speed 29 mph    
Max Gust Speed 46 mph    
Visibility 6 miles    
Events Fog , Rain , Snow    
T = Trace of Precipitation, MM = Missing Value Source: NWS Daily Summary

Daily Weather History Graph

Daily Weather History Graph

Search for Another Location

Airport:

Trip Planner

Search our weather history database for the weather conditions in past years. The results will help you decide how hot, cold, wet, or windy it might be!

Date:

Astronomy

Mar. 12, 2014 Rise Set
Actual Time 7:48 AM EDT 7:37 PM EDT
Civil Twilight 7:22 AM EDT 8:03 PM EDT
Nautical Twilight 6:52 AM EDT 8:34 PM EDT
Astronomical Twilight 6:21 AM EDT 9:04 PM EDT
Moon 4:10 PM EDT (3/12) 5:16 AM EDT (3/12)
Length of Visible Light 12h 41m
Length of Day
11h 48m
Waxing Gibbous, 85% of the Moon is Illuminated
Mar 12
Waxing Gibbous
Mar 16
Full
Mar 23
Last Quarter
Mar 30
New
Apr 7
First Quarter

Hourly Weather History & Observations

Time (EDT) Temp. Windchill Dew Point Humidity Pressure Visibility Wind Dir Wind Speed Gust Speed Precip Events Conditions
12:53 AM 61.0 °F - 37.0 °F 41% 29.59 in 10.0 mi SSW 4.6 mph - N/A   Mostly Cloudy
1:53 AM 61.0 °F - 39.0 °F 44% 29.55 in 10.0 mi SSW 5.8 mph - N/A   Partly Cloudy
2:53 AM 61.0 °F - 39.9 °F 46% 29.51 in 10.0 mi SSW 3.5 mph - N/A   Overcast
3:53 AM 61.0 °F - 42.1 °F 50% 29.46 in 10.0 mi SSW 3.5 mph - N/A   Mostly Cloudy
4:53 AM 61.0 °F - 43.0 °F 52% 29.44 in 10.0 mi Calm Calm - N/A   Overcast
5:53 AM 61.0 °F - 45.0 °F 56% 29.42 in 10.0 mi Variable 3.5 mph - N/A   Overcast
6:53 AM 57.9 °F - 48.9 °F 72% 29.40 in 6.0 mi Variable 6.9 mph 17.3 mph 0.01 in Rain Light Rain
7:14 AM 55.9 °F - 51.1 °F 84% 29.42 in 7.0 mi Variable 5.8 mph - 0.02 in Rain Light Rain
7:53 AM 55.9 °F - 52.0 °F 87% 29.38 in 5.0 mi Variable 5.8 mph - 0.05 in Rain Light Rain
8:40 AM 55.9 °F - 54.0 °F 93% 29.39 in 4.0 mi North - - 0.04 in Rain Light Rain
8:53 AM 55.9 °F - 54.0 °F 93% 29.36 in 3.0 mi Variable 4.6 mph - 0.04 in Rain Light Rain
9:07 AM 57.0 °F - 54.0 °F 89% 29.38 in 2.5 mi Variable 3.5 mph - 0.01 in Rain Light Rain
9:29 AM 57.0 °F - 55.0 °F 93% 29.37 in 4.0 mi North - - 0.02 in Rain Light Rain
9:53 AM 57.9 °F - 55.0 °F 90% 29.34 in 7.0 mi Variable 5.8 mph 20.7 mph 0.02 in   Overcast
10:17 AM 57.9 °F - 55.0 °F 90% 29.36 in 10.0 mi SSW 9.2 mph - N/A   Overcast
10:53 AM 59.0 °F - 55.0 °F 87% 29.31 in 10.0 mi SW 11.5 mph 24.2 mph N/A   Overcast
11:45 AM 59.0 °F - 54.0 °F 83% 29.34 in 1.8 mi West 17.3 mph 27.6 mph 0.00 in Rain Rain
11:49 AM 57.2 °F - 53.6 °F 88% 29.33 in 0.8 mi West 18.4 mph 36.8 mph 0.06 in Rain Heavy Rain
11:53 AM 55.9 °F - 52.0 °F 87% 29.32 in 0.8 mi West 21.9 mph 36.8 mph 0.11 in Rain Light Rain
11:57 AM 55.0 °F - 51.1 °F 86% 29.35 in 2.5 mi West 19.6 mph 40.3 mph 0.00 in Rain Light Rain
12:04 PM 55.0 °F - 50.0 °F 83% 29.35 in 10.0 mi West 19.6 mph 34.5 mph 0.00 in   Overcast
12:53 PM 48.9 °F - 44.1 °F 83% 29.40 in 10.0 mi West 10.4 mph 46.0 mph 0.00 in   Overcast
1:07 PM 46.9 °F - 42.1 °F 83% 29.43 in 10.0 mi West 20.7 mph 35.7 mph N/A   Overcast
1:53 PM 41.0 °F 32.8 °F 36.0 °F 82% 29.50 in 10.0 mi West 16.1 mph 27.6 mph 0.00 in Rain Light Rain
2:12 PM 39.0 °F 30.6 °F 34.0 °F 82% 29.53 in 10.0 mi West 15.0 mph 41.4 mph 0.00 in   Overcast
2:53 PM 37.9 °F 28.2 °F 32.0 °F 79% 29.57 in 8.0 mi WNW 18.4 mph 32.2 mph 0.00 in Rain Light Rain
3:53 PM 37.0 °F 27.4 °F 28.9 °F 73% 29.63 in 8.0 mi NW 17.3 mph 36.8 mph 0.00 in   Overcast
4:53 PM 35.1 °F 26.9 °F 28.0 °F 76% 29.70 in 10.0 mi NNW 11.5 mph 25.3 mph 0.00 in   Overcast
5:53 PM 35.1 °F 27.9 °F 28.0 °F 76% 29.74 in 7.0 mi NW 9.2 mph 23.0 mph 0.00 in Snow Light Snow
6:31 PM 34.0 °F 27.2 °F 28.0 °F 79% 29.76 in 2.0 mi NW 8.1 mph - 0.00 in Snow Light Snow
6:48 PM 33.8 °F 26.4 °F 28.4 °F 81% 29.77 in 1.5 mi WNW 9.2 mph - 0.01 in Snow Light Snow
6:53 PM 33.1 °F 24.9 °F 28.9 °F 85% 29.78 in 0.8 mi West 10.4 mph - 0.01 in Snow Light Snow
6:59 PM 33.1 °F 23.9 °F 30.0 °F 89% 29.78 in 0.5 mi WNW 12.7 mph 20.7 mph 0.01 in Fog , Snow Light Snow
7:05 PM 32.0 °F 22.1 °F 28.9 °F 88% 29.79 in 1.0 mi WNW 13.8 mph 23.0 mph 0.01 in Snow Light Snow
7:40 PM 30.9 °F 22.2 °F 27.0 °F 85% 29.81 in 2.0 mi NW 10.4 mph 19.6 mph 0.02 in Snow Light Snow
7:50 PM 30.2 °F 21.9 °F 26.6 °F 86% 29.82 in 2.5 mi NW 9.2 mph - 0.02 in Snow Light Snow
7:53 PM 30.9 °F 21.2 °F 27.0 °F 85% 29.83 in 2.0 mi NW 12.7 mph 18.4 mph 0.02 in Snow Light Snow
7:59 PM 30.9 °F 24.3 °F 27.0 °F 85% 29.83 in 3.0 mi Variable 6.9 mph 19.6 mph 0.00 in Snow Light Snow
8:53 PM 30.9 °F 24.3 °F 25.0 °F 79% 29.87 in 4.0 mi North 6.9 mph - 0.00 in Snow Light Snow
8:58 PM 30.9 °F 26.2 °F 26.1 °F 82% 29.87 in 2.0 mi Variable 4.6 mph - 0.00 in Snow Light Snow
9:00 PM 30.9 °F 25.2 °F 26.1 °F 82% 29.87 in 1.5 mi Variable 5.8 mph - 0.00 in Snow Light Snow
9:17 PM 30.0 °F 22.4 °F 26.1 °F 85% 29.88 in 0.8 mi NW 8.1 mph - 0.00 in Snow Light Snow
9:25 PM 30.0 °F 25.2 °F 27.0 °F 88% 29.88 in 0.8 mi Variable 4.6 mph - 0.01 in Snow Light Snow
9:53 PM 28.9 °F 21.1 °F 27.0 °F 92% 29.89 in 0.5 mi NNW 8.1 mph - 0.03 in Fog , Snow Snow
10:09 PM 28.9 °F 18.6 °F 26.1 °F 89% 29.89 in 1.8 mi NW 12.7 mph 19.6 mph 0.01 in Snow Light Snow
10:12 PM 28.9 °F 20.4 °F 26.1 °F 89% 29.89 in 3.0 mi NW 9.2 mph 18.4 mph 0.01 in Snow Light Snow
10:25 PM 28.9 °F 20.4 °F 25.0 °F 85% 29.90 in 9.0 mi WNW 9.2 mph - 0.01 in   Overcast
10:32 PM 28.9 °F 19.2 °F 25.0 °F 85% 29.91 in 8.0 mi WNW 11.5 mph 19.6 mph 0.01 in   Overcast
10:53 PM 28.9 °F 20.4 °F 25.0 °F 85% 29.92 in 10.0 mi NW 9.2 mph - 0.01 in   Overcast
11:22 PM 28.9 °F 19.8 °F 23.0 °F 78% 29.91 in 9.0 mi NW 10.4 mph - 0.00 in   Overcast
11:53 PM 28.9 °F 21.1 °F 23.0 °F 78% 29.94 in 6.0 mi West 8.1 mph - 0.00 in Snow Light Snow